• En España
  • Lista de países
  • Para 7 días
  • Temperatura del agua
  • Mapa Satelital
  • El tiempo en el mapa
  • Informadores
  • user-avatar
    Iniciar sesión

    Tiempo cada hora Mosul

    Hoy, 19 Septiembre, Miércoles

    Tiempo Temperatura Precipitaciones Viento Presión Humedad
    00:00 +35°C° 0 mm 3 mps 728 mmHg 17%
    01:00 +34°C° 0 mm 3 mps 728 mmHg 17%
    02:00 +34°C° 0 mm 3 mps 728 mmHg 18%
    03:00 +33°C° 0 mm 3 mps 727 mmHg 21%
    04:00 +31°C° 0 mm 3 mps 728 mmHg 22%
    05:00 +31°C° 0 mm 3 mps 728 mmHg 23%
    06:00 +30°C° 0 mm 3 mps 728 mmHg 24%
    07:00 +33°C° 0 mm 4 mps 728 mmHg 21%
    08:00 +35°C° 0 mm 4 mps 728 mmHg 19%
    09:00 +37°C° 0 mm 4 mps 728 mmHg 16%
    10:00 +40°C° 0 mm 4 mps 728 mmHg 15%
    11:00 +40°C° 0 mm 3 mps 728 mmHg 14%
    12:00 +42°C° 0 mm 3 mps 728 mmHg 13%
    13:00 +42°C° 0 mm 2 mps 728 mmHg 12%
    14:00 +42°C° 0 mm 1 mps 727 mmHg 11%
    15:00 +42°C° 0 mm 1 mps 727 mmHg 10%
    16:00 +42°C° 0 mm 1 mps 727 mmHg 11%
    17:00 +41°C° 0 mm 2 mps 727 mmHg 11%
    18:00 +40°C° 0 mm 2 mps 726 mmHg 11%
    19:00 +39°C° 0 mm 3 mps 727 mmHg 12%
    20:00 +38°C° 0 mm 3 mps 727 mmHg 12%
    21:00 +37°C° 0 mm 4 mps 727 mmHg 13%
    22:00 +36°C° 0 mm 3 mps 727 mmHg 14%
    23:00 +36°C° 0 mm 3 mps 727 mmHg 14%

    Mañana, 20 Septiembre, Jueves

    Tiempo Temperatura Precipitaciones Viento Presión Humedad
    00:00 +35°C° 0 mm 3 mps 727 mmHg 15%
    01:00 +34°C° 0 mm 3 mps 727 mmHg 15%
    02:00 +34°C° 0 mm 3 mps 727 mmHg 15%
    03:00 +33°C° 0 mm 3 mps 727 mmHg 15%
    04:00 +33°C° 0 mm 3 mps 727 mmHg 16%
    05:00 +31°C° 0 mm 3 mps 728 mmHg 17%
    06:00 +31°C° 0 mm 3 mps 728 mmHg 17%
    07:00 +33°C° 0 mm 3 mps 728 mmHg 17%
    08:00 +35°C° 0 mm 3 mps 728 mmHg 17%
    09:00 +36°C° 0 mm 3 mps 729 mmHg 16%
    10:00 +38°C° 0 mm 3 mps 729 mmHg 15%
    11:00 +39°C° 0 mm 2 mps 729 mmHg 13%
    12:00 +40°C° 0 mm 1 mps 729 mmHg 11%
    13:00 +41°C° 0 mm 2 mps 729 mmHg 10%
    14:00 +42°C° 0 mm 3 mps 728 mmHg 10%
    15:00 +43°C° 0 mm 3 mps 728 mmHg 9%
    16:00 +42°C° 0 mm 3 mps 728 mmHg 9%
    17:00 +40°C° 0 mm 3 mps 728 mmHg 9%
    18:00 +39°C° 0 mm 3 mps 728 mmHg 9%
    19:00 +38°C° 0 mm 3 mps 728 mmHg 10%
    20:00 +37°C° 0 mm 3 mps 728 mmHg 10%
    21:00 +36°C° 0 mm 2 mps 729 mmHg 11%
    22:00 +35°C° 0 mm 2 mps 729 mmHg 11%
    23:00 +35°C° 0 mm 2 mps 729 mmHg 11%

    Pasado mañana, 21 Septiembre, Viernes

    Tiempo Temperatura Precipitaciones Viento Presión Humedad
    00:00 +34°C° 0 mm 2 mps 729 mmHg 12%
    01:00 +32°C° 0 mm 2 mps 728 mmHg 12%
    02:00 +32°C° 0 mm 2 mps 728 mmHg 13%
    03:00 +31°C° 0 mm 2 mps 728 mmHg 13%
    04:00 +31°C° 0 mm 2 mps 728 mmHg 14%
    05:00 +30°C° 0 mm 2 mps 729 mmHg 16%
    06:00 +29°C° 0 mm 2 mps 729 mmHg 17%
    07:00 +31°C° 0 mm 2 mps 729 mmHg 17%
    08:00 +34°C° 0 mm 2 mps 729 mmHg 16%
    09:00 +35°C° 0 mm 3 mps 730 mmHg 16%
    10:00 +37°C° 0 mm 2 mps 730 mmHg 14%
    11:00 +38°C° 0 mm 2 mps 730 mmHg 12%
    12:00 +40°C° 0 mm 1 mps 730 mmHg 11%
    13:00 +40°C° 0 mm 1 mps 730 mmHg 10%
    14:00 +41°C° 0 mm 2 mps 729 mmHg 9%
    15:00 +41°C° 0 mm 2 mps 729 mmHg 9%
    16:00 +40°C° 0 mm 2 mps 729 mmHg 9%
    17:00 +39°C° 0 mm 1 mps 729 mmHg 10%
    18:00 +37°C° 0 mm 1 mps 729 mmHg 10%
    19:00 +36°C° 0 mm 1 mps 729 mmHg 10%
    20:00 +36°C° 0 mm 1 mps 729 mmHg 11%
    21:00 +36°C° 0 mm 2 mps 730 mmHg 11%
    22:00 +35°C° 0 mm 2 mps 730 mmHg 12%
    23:00 +35°C° 0 mm 2 mps 730 mmHg 12%

    22 Septiembre, Sábado

    Tiempo Temperatura Precipitaciones Viento Presión Humedad
    00:00 +34°C° 0 mm 3 mps 729 mmHg 12%
    01:00 +34°C° 0 mm 3 mps 729 mmHg 13%
    02:00 +33°C° 0 mm 3 mps 729 mmHg 13%
    03:00 +31°C° 0 mm 3 mps 729 mmHg 14%
    04:00 +31°C° 0 mm 3 mps 729 mmHg 14%
    05:00 +30°C° 0 mm 2 mps 729 mmHg 14%
    06:00 +30°C° 0 mm 2 mps 729 mmHg 14%
    07:00 +33°C° 0 mm 3 mps 730 mmHg 13%
    08:00 +35°C° 0 mm 3 mps 730 mmHg 11%
    09:00 +36°C° 0 mm 3 mps 730 mmHg 9%
    10:00 +38°C° 0 mm 3 mps 730 mmHg 9%
    11:00 +40°C° 0 mm 3 mps 730 mmHg 9%
    12:00 +42°C° 0 mm 3 mps 730 mmHg 8%
    13:00 +43°C° 0 mm 3 mps 729 mmHg 8%
    14:00 +43°C° 0 mm 3 mps 729 mmHg 8%
    15:00 +42°C° 0 mm 2 mps 728 mmHg 9%
    16:00 +41°C° 0 mm 2 mps 728 mmHg 9%
    17:00 +41°C° 0 mm 2 mps 728 mmHg 10%
    18:00 +40°C° 0 mm 2 mps 728 mmHg 11%
    19:00 +39°C° 0 mm 2 mps 728 mmHg 11%
    20:00 +38°C° 0 mm 3 mps 728 mmHg 12%
    21:00 +37°C° 0 mm 3 mps 729 mmHg 12%
    22:00 +36°C° 0 mm 3 mps 729 mmHg 13%
    23:00 +35°C° 0 mm 3 mps 729 mmHg 14%

    23 Septiembre, Domingo

    Tiempo Temperatura Precipitaciones Viento Presión Humedad
    00:00 +34°C° 0 mm 3 mps 729 mmHg 15%
    01:00 +34°C° 0 mm 3 mps 729 mmHg 16%
    02:00 +33°C° 0 mm 3 mps 728 mmHg 17%
    03:00 +31°C° 0 mm 3 mps 728 mmHg 18%
    04:00 +31°C° 0 mm 2 mps 728 mmHg 19%
    05:00 +30°C° 0 mm 2 mps 728 mmHg 19%
    06:00 +29°C° 0 mm 2 mps 728 mmHg 20%
    07:00 +31°C° 0 mm 2 mps 729 mmHg 18%
    08:00 +34°C° 0 mm 2 mps 729 mmHg 17%
    09:00 +35°C° 0 mm 2 mps 730 mmHg 15%
    10:00 +37°C° 0 mm 3 mps 730 mmHg 14%
    11:00 +38°C° 0 mm 3 mps 730 mmHg 13%
    12:00 +40°C° 0 mm 4 mps 730 mmHg 12%
    13:00 +40°C° 0 mm 4 mps 729 mmHg 11%
    14:00 +41°C° 0 mm 4 mps 729 mmHg 10%
    15:00 +41°C° 0 mm 4 mps 729 mmHg 9%
    16:00 +41°C° 0 mm 4 mps 729 mmHg 10%
    17:00 +39°C° 0 mm 3 mps 729 mmHg 11%
    18:00 +38°C° 0 mm 3 mps 729 mmHg 12%
    19:00 +37°C° 0 mm 3 mps 729 mmHg 13%
    20:00 +36°C° 0 mm 3 mps 729 mmHg 14%
    21:00 +35°C° 0 mm 4 mps 729 mmHg 16%
    22:00 +34°C° 0 mm 4 mps 729 mmHg 17%
    23:00 +34°C° 0 mm 3 mps 729 mmHg 18%

    24 Septiembre, Lunes

    Tiempo Temperatura Precipitaciones Viento Presión Humedad
    00:00 +33°C° 0 mm 3 mps 729 mmHg 20%
    01:00 +31°C° 0 mm 3 mps 729 mmHg 21%
    02:00 +31°C° 0 mm 3 mps 728 mmHg 22%
    03:00 +30°C° 0 mm 2 mps 728 mmHg 23%
    04:00 +29°C° 0 mm 2 mps 728 mmHg 24%
    05:00 +29°C° 0 mm 1 mps 728 mmHg 24%
    06:00 +28°C° 0 mm 1 mps 728 mmHg 25%
    07:00 +30°C° 0 mm 1 mps 729 mmHg 22%
    08:00 +31°C° 0 mm 1 mps 729 mmHg 19%
    09:00 +33°C° 0 mm 1 mps 729 mmHg 17%
    10:00 +34°C° 0 mm 1 mps 729 mmHg 16%
    11:00 +37°C° 0 mm 2 mps 729 mmHg 14%
    12:00 +38°C° 0 mm 2 mps 729 mmHg 13%
    13:00 +39°C° 0 mm 2 mps 729 mmHg 12%
    14:00 +39°C° 0 mm 2 mps 728 mmHg 11%
    15:00 +40°C° 0 mm 3 mps 728 mmHg 10%
    16:00 +39°C° 0 mm 2 mps 728 mmHg 10%
    17:00 +38°C° 0 mm 2 mps 728 mmHg 11%
    18:00 +37°C° 0 mm 2 mps 728 mmHg 11%
    19:00 +36°C° 0 mm 2 mps 728 mmHg 11%
    20:00 +34°C° 0 mm 1 mps 728 mmHg 12%
    21:00 +33°C° 0 mm 1 mps 729 mmHg 12%
    22:00 +33°C° 0 mm 1 mps 729 mmHg 13%
    23:00 +32°C° 0 mm 1 mps 728 mmHg 13%
    Mostrar más